Location: Lombardi
(41.2500°N, 14.4667°E)
Time: 20:56:32
(UTC+00:00)

Daily predictions for brighter satellites

Satellite Brightness Start Highest point End
(mag) Time Altitude Azimuth Time Altitude Azimuth Time Altitude Azimuth
Meteor 2-13 Rocket 4.5 18:01:43 10° N 18:07:48 70° E 18:13:54 10° SSE
CSL-04 Debris 4.2 18:03:23 10° SSE 18:08:50 75° ENE 18:14:19 10° N
NOSS 3-2 (C) 4.3 18:04:06 10° NW 18:11:51 82° WSW 18:20:31 10° SSE
Cosmos 405 4.1 18:10:54 10° SE 18:13:41 23° E 18:16:30 10° NE
CZ-4 R/B 3.0 18:11:52 10° S 18:15:50 41° W 18:19:50 10° NNW
BREEZE M DEB (TANK) 4.2 17:58:04 10° SW 18:16:09 64° SSE 18:20:39 10° ENE
OBJECT-B 2.1 18:13:44 10° SE 18:16:20 23° ENE 18:18:57 10° NNE
ATLAS 2AS CENTAUR R/B 3.0 18:09:25 10° SSW 18:17:14 70° ESE 18:25:01 10° NE
SL-27 R/B 4.0 18:14:01 10° SW 18:17:22 42° WNW 18:20:41 10° N
Cosmos 2322 Rocket 2.8 18:13:48 10° NNW 18:19:25 60° WSW 18:25:00 10° S
NOSS 7 (H) 4.3 18:15:48 10° SSW 18:19:35 71° ESE 18:22:37 10° NE
Cosmos 1606 Rocket 3.5 18:15:45 10° S 18:20:04 63° E 18:24:23 10° NNE
Cosmos 1892 3.3 18:18:30 10° N 18:22:00 35° ENE 18:25:30 10° SE
Cosmos 2333 Rocket 2.9 18:17:59 10° N 18:23:23 40° ENE 18:28:43 10° SE
BREEZE-M DEB (TANK) 3.1 18:18:24 10° SW 18:25:28 41° SSE 18:28:09 10° ENE
Cosmos 1441 Rocket 4.2 18:25:24 10° NNW 18:29:15 53° W 18:33:07 10° S
Cosmos 1726 Rocket 3.5 18:26:15 10° S 18:30:35 64° E 18:34:54 10° NNE
Helios 1A Rocket 3.0 18:27:34 10° S 18:31:38 79° WSW 18:35:45 10° NNW
CZ-4C R/B 3.8 18:27:38 10° WSW 18:32:12 37° NW 18:37:37 10° NNE
Ariane Rocket 3.7 18:27:49 10° SE 18:32:24 36° ENE 18:37:00 10° N
Cosmos 2344 3.7 18:25:13 10° S 18:32:33 50° ESE 18:39:48 10° NE
Cosmos 1269 Rocket 4.4 18:28:42 10° SSW 18:33:58 70° WNW 18:39:18 10° NNE
Cosmos 2322 4.0 18:28:58 10° NNW 18:34:28 50° ENE 18:39:43 11° SE
Cosmos 1825 3.5 18:31:49 10° NNE 18:34:53 23° ENE 18:37:10 14° ESE
Cosmos 1302 Rocket 4.1 18:30:26 10° NNW 18:35:45 90° WNW 18:41:02 10° SSE
Cosmos 2228 3.4 18:32:34 10° SSW 18:36:54 70° W 18:41:14 10° N
Okean-O 4.4 18:33:45 10° SSW 18:37:46 34° W 18:41:50 10° NNW
MetOp-A 4.1 18:33:44 10° SSE 18:39:04 80° ENE 18:44:27 10° N
RESURS DK-1 2.6 18:39:18 10° S 18:43:13 44° ESE 18:47:09 10° NE
Cosmos 1408 2.7 18:40:03 10° N 18:43:31 48° E 18:46:40 12° SSE
CSL-04 Rocket 4.5 18:45:14 10° S 18:50:21 51° W 18:55:30 10° NNW
CENTAUR R/B 4.2 18:46:11 10° NW 18:54:04 46° WSW 19:02:23 10° S
Cosmos 2058 3.5 18:50:42 10° N 18:54:39 39° ENE 18:57:06 20° SE
CZ-2C R/B 4.4 18:51:23 10° N 18:56:02 34° WNW 19:00:43 10° SW
Cosmos 2058 Rocket 2.9 18:52:12 10° S 18:56:32 74° E 19:00:54 10° NNE
Cosmos 1992 Rocket 4.1 18:52:55 10° NNW 18:58:05 59° ENE 19:01:52 18° SE
Cosmos 2360 Rocket 3.1 18:54:56 10° NW 19:00:22 48° WSW 19:05:44 10° S
COSMOS 2487 3.2 18:57:26 10° SSW 19:00:44 52° WNW 19:04:05 10° N
ATLAS 3B R/B 3.2 18:54:06 10° NNW 19:00:57 51° NE 19:05:56 20° ESE
USA 186 2.9 18:58:20 10° S 19:01:28 44° W 19:04:31 10° NNW
USA 215 4.2 18:58:18 12° E 19:03:38 37° NNE 19:09:31 10° NW
COSMOS 2428 2.9 18:58:20 10° NNW 19:04:00 58° ENE 19:07:47 21° SE
Cosmos 1953 Rocket 3.9 18:59:54 10° NNW 19:04:14 67° W 19:08:30 10° S
Cosmos 1092 Rocket 4.0 19:01:35 10° N 19:07:52 87° E 19:14:04 10° S
Cosmos 2333 4.4 19:03:16 10° NNW 19:09:02 76° WSW 19:14:01 14° SSE
Cosmos 1818 3.5 19:05:20 10° SSW 19:10:43 73° ESE 19:16:11 10° NE
Cosmos 1812 Rocket 4.4 19:10:52 27° ESE 19:11:44 29° E 19:15:35 10° NNE
Cosmos 1076 Rocket 4.3 19:08:17 10° NNE 19:12:13 32° ENE 19:13:19 28° ESE
Cosmos 909 Rocket 3.9 19:06:04 10° SSW 19:12:29 70° ESE 19:18:46 10° NE
FALCON 9 DEB 3.4 19:09:06 10° WSW 19:12:29 67° NW 19:15:55 10° NE
Cosmos 407 Rocket 4.3 19:13:31 26° ESE 19:14:10 27° E 19:18:26 10° NE
Resurs 01 Rocket 2.0 19:12:45 28° SE 19:14:38 44° ENE 19:18:53 10° N
Cosmos 44 3.4 19:10:09 10° SSW 19:15:11 90° WSW 19:20:33 10° NNE
NOSS 0 Rocket 4.4 19:10:01 10° NNW 19:15:59 45° ENE 19:19:06 26° ESE
Cosmos 2219 Rocket 2.2 19:11:43 10° NNW 19:17:27 88° ENE 19:21:13 22° SSE
Cosmos 1455 2.6 19:14:13 10° SSW 19:17:55 61° W 19:21:38 10° N
Resurs 1-3 3.6 19:23:13 21° S 19:26:05 80° WSW 19:30:30 10° NNW
IGS 5A 3.7 19:27:42 41° ESE 19:28:39 50° ENE 19:32:41 10° N
Cosmos 1633 4.0 19:27:49 10° NNE 19:30:05 23° NE 19:30:05 23° NE
Lacrosse 5 rocket 4.4 19:30:42 10° NNW 19:31:51 11° N 19:33:01 10° N
Cosmos 1356 3.5 19:28:53 10° N 19:32:12 55° ENE 19:32:12 55° ENE
ATLAS 5 CENTAUR R/B 1.5 19:31:34 10° NW 19:33:14 48° WSW 19:33:14 48° WSW
Abrixas rocket 4.3 19:32:25 10° W 19:32:30 11° W 19:32:30 11° W
Cosmos 405 Rocket 2.7 19:32:40 10° N 19:36:41 71° E 19:37:21 56° SE
Cosmos 2292 Rocket 4.3 19:30:41 10° N 19:37:29 64° E 19:39:37 37° SE
Cosmos 1140 Rocket 3.9 19:38:38 39° ESE 19:38:41 39° ESE 19:43:25 10° NE
IRIDIUM 106 4.2 19:36:08 30° SSE 19:38:42 68° E 19:43:53 10° N
Cosmos 2279 Rocket 3.9 19:33:56 10° S 19:40:04 82° E 19:46:17 10° N
SPOT 5 4.4 19:40:17 19° ENE 19:40:17 19° ENE 19:43:31 10° NNE
Spot 2 Rocket 4.2 19:41:31 34° E 19:42:15 36° ENE 19:46:52 10° N
Cosmos 2237 Rocket 2.6 19:38:49 10° NNW 19:44:13 45° ENE 19:45:35 38° E
BREEZE-M DEB (TANK) 4.2 19:40:08 10° WNW 19:44:34 54° N 19:48:45 18° ENE
Exosat Rocket 3.7 19:38:39 10° NNW 19:44:54 78° WSW 19:47:11 35° S
SL-8 R/B 3.7 19:43:01 10° WNW 19:47:52 76° NNE 19:48:58 53° E
OBJECT-B 3.6 19:46:27 10° SW 19:48:31 16° W 19:50:35 10° NW
CZ-2C R/B 3.5 19:45:19 10° NNE 19:49:46 74° ESE 19:50:39 55° SSE
Terra 3.6 19:50:06 18° ENE 19:50:06 18° ENE 19:53:00 10° NNE
MetOp-B 4.0 19:52:09 46° SSE 19:53:46 78° ENE 19:59:09 10° N
Meteor 2-14 Rocket 4.4 19:48:44 10° N 19:54:46 64° E 19:56:27 46° SE
Cosmos 2227 Rocket 2.4 19:57:04 48° ESE 19:57:04 48° ESE 20:02:21 10° NE
SPOT 1/Viking Rocket 3.5 19:58:13 55° SE 19:59:08 67° ENE 20:04:21 10° N
Cosmos 389 Rocket 3.2 20:00:14 48° W 20:00:35 51° WNW 20:04:03 10° N
Cosmos 2297 Rocket 2.0 20:02:13 40° S 20:04:18 72° ESE 20:09:57 10° NNE
SPOT 3 Rocket 3.9 20:03:45 37° SSW 20:05:42 61° WSW 20:10:51 10° NNW
Cosmos 2219 3.0 20:05:52 55° SSE 20:06:57 68° ESE 20:12:33 10° NNE
Cosmos 2333 Rocket 3.7 20:02:32 10° NW 20:07:28 30° WSW 20:10:56 17° SSW
Cosmos 1190 Rocket 3.9 20:07:39 63° E 20:07:39 63° E 20:12:42 10° NNE
Cosmos 2266 Rocket 4.0 20:02:14 10° N 20:08:35 64° E 20:09:47 54° SE
ARIANE 5 R/B 2.9 20:09:20 55° NE 20:09:20 55° NE 20:13:11 10° N
BREEZE-M DEB (TANK) 4.4 20:07:23 10° NW 20:08:17 19° NNW 20:08:17 19° NNW
Cosmos 1825 4.5 20:07:20 10° NW 20:10:13 21° W 20:11:58 16° SW
Timation 2 Rocket 3.9 20:10:14 39° S 20:12:47 68° ESE 20:19:08 10° NNE
Meteor 2-21 Rocket 4.3 20:09:20 10° N 20:15:24 73° E 20:16:20 62° SE
Landsat 7 4.4 20:20:38 44° SW 20:21:28 50° W 20:26:05 10° NNW
USA 245 4.1 20:24:37 50° NW 20:24:37 50° NW 20:27:20 10° NNW
Cosmos-2242 3.5 20:25:50 57° N 20:25:50 57° N 20:29:21 10° N
Meteor 2-16 Rocket 4.3 20:22:41 10° N 20:28:52 78° E 20:29:25 72° SE
Cosmos 1655 Rocket 4.2 20:30:09 10° NNW 20:36:23 67° W 20:37:46 52° SSW
SL-16 R/B 2.8 20:32:49 10° NNW 20:37:53 43° NE 20:37:53 43° NE
Cosmos 1980 3.9 20:33:51 10° NNW 20:39:28 62° WSW 20:39:45 61° SW
Cosmos 2151 4.3 20:41:51 10° NNW 20:45:17 37° WNW 20:45:17 37° WNW
USA 215 3.1 20:45:38 73° SSE 20:46:15 81° SW 20:52:50 10° NW
Meteor 1-27 4.3 20:47:48 75° W 20:47:58 75° W 20:53:47 10° N
Meteor 2-3 Rocket 3.9 20:42:29 10° NNW 20:48:11 63° W 20:48:26 62° WSW
Resurs 01 Rocket 3.9 20:50:18 16° WSW 20:51:20 17° W 20:54:14 10° NW
ATLAS 3B R/B 3.8 20:45:07 10° NW 20:51:30 36° WSW 20:53:12 32° SW
ERS-1 Rocket 3.4 20:54:39 59° NW 20:54:39 59° NW 20:58:47 10° NNW
Lacrosse 5 rocket 4.4 21:11:27 10° N 21:12:48 11° NNE 21:14:10 10° NNE
COSMOS 2455 3.3 21:18:16 55° N 21:18:16 55° N 21:22:57 10° NNE
SPOT 5 4.4 21:19:30 31° NW 21:19:30 31° NW 21:22:21 10° NNW
Terra 3.4 21:28:59 32° NW 21:28:59 32° NW 21:31:46 10° NNW
Cosmos 2237 Rocket 3.8 21:23:26 10° NW 21:27:26 25° W 21:27:26 25° W
SeaSat 1 4.4 21:23:02 10° NNE 21:24:38 21° NNE 21:24:38 21° NNE
Cosmos 2263 Rocket 4.1 21:42:46 21° NE 21:42:46 21° NE 21:44:33 10° NNE
Cosmos 2227 Rocket 4.0 21:38:46 20° W 21:41:12 26° NW 21:45:56 10° N
USA 229 DEB 4.5 21:38:50 10° NNW 21:45:50 47° NE 21:46:08 46° NE
USA 229 4.5 21:38:55 10° NNW 21:45:57 46° NE 21:46:15 46° NE
NOSS 3-1 (A) 4.4 21:56:25 10° NNW 22:03:51 56° NE 22:04:04 55° NE
SL-16 R/B 4.2 22:17:26 10° NW 22:19:46 20° WNW 22:19:46 20° WNW
NOSS 3-1 (C) 4.3 22:22:21 10° NW 22:28:43 64° WNW 22:28:43 64° WNW
Cosmos 2263 Rocket 4.2 23:24:25 22° NW 23:24:25 22° NW 23:27:45 10° N
USA 281 3.9 23:33:03 50° NNW 23:33:03 50° NNW 23:37:42 10° NNW
Cosmos 1844 Rocket 4.2 23:39:31 32° NNE 23:39:31 32° NNE 23:42:26 10° NNE
SJ 16-02 4.2 23:56:01 12° NE 23:56:01 12° NE 23:56:35 10° NE
